Previsão horária em Abay

Hoje, 12 Abril, Segunda-feira

Tempo Temperatura Precipitação Vento Pressão Humidade
00:00 -1°C° 0 mm 1 m/s 679 mmHg 90%
01:00 -1°C° 0 mm 1 m/s 679 mmHg 90%
02:00 -2°C° 0 mm 0 m/s 679 mmHg 90%
03:00 -2°C° 0 mm 0 m/s 678 mmHg 90%
04:00 -2°C° 0 mm 0 m/s 679 mmHg 90%
05:00 -2°C° 0 mm 0 m/s 679 mmHg 90%
06:00 -4°C° 0 mm 0 m/s 679 mmHg 85%
07:00 -2°C° 0 mm 0 m/s 679 mmHg 78%
08:00 +1°C° 0 mm 0 m/s 679 mmHg 71%
09:00 +4°C° 0 mm 1 m/s 679 mmHg 64%
10:00 +5°C° 0 mm 0 m/s 678 mmHg 60%
11:00 +6°C° 0 mm 0 m/s 678 mmHg 56%
12:00 +8°C° 0 mm 0 m/s 678 mmHg 50%
13:00 +9°C° 0 mm 0 m/s 678 mmHg 48%
14:00 +10°C° 0 mm 0 m/s 677 mmHg 47%
15:00 +10°C° 0 mm 0 m/s 677 mmHg 45%
16:00 +10°C° 0 mm 0 m/s 677 mmHg 52%
17:00 +9°C° 0 mm 0 m/s 677 mmHg 60%
18:00 +8°C° 0 mm 0 m/s 677 mmHg 67%
19:00 +6°C° 0 mm 0 m/s 677 mmHg 71%
20:00 +5°C° 0 mm 0 m/s 677 mmHg 75%
21:00 +3°C° 0 mm 0 m/s 677 mmHg 78%
22:00 +4°C° 0 mm 1 m/s 677 mmHg 79%
23:00 +3°C° 0 mm 1 m/s 676 mmHg 79%

Amanhã, 13 Abril, Terça-feira

Tempo Temperatura Precipitação Vento Pressão Humidade
00:00 +3°C° 0 mm 1 m/s 676 mmHg 80%
01:00 +3°C° 0 mm 1 m/s 676 mmHg 81%
02:00 +2°C° 0 mm 1 m/s 676 mmHg 81%
03:00 +2°C° 0 mm 1 m/s 676 mmHg 82%
04:00 +2°C° 0 mm 1 m/s 675 mmHg 83%
05:00 +2°C° 0 mm 1 m/s 675 mmHg 83%
06:00 +2°C° 0 mm 1 m/s 675 mmHg 84%
07:00 +4°C° 0 mm 1 m/s 675 mmHg 76%
08:00 +6°C° 0 mm 1 m/s 675 mmHg 68%
09:00 +8°C° 0 mm 1 m/s 674 mmHg 60%
10:00 +9°C° 0 mm 1 m/s 674 mmHg 56%
11:00 +9°C° 0 mm 2 m/s 674 mmHg 51%
12:00 +10°C° 0 mm 2 m/s 673 mmHg 47%
13:00 +10°C° 0 mm 3 m/s 673 mmHg 47%
14:00 +10°C° 0 mm 4 m/s 673 mmHg 48%
15:00 +9°C° 0 mm 5 m/s 673 mmHg 48%
16:00 +7°C° 0.1 mm 4 m/s 673 mmHg 58%
17:00 +7°C° 0.1 mm 3 m/s 673 mmHg 68%
18:00 +4°C° 0.1 mm 3 m/s 674 mmHg 78%
19:00 +2°C° 0.2 mm 3 m/s 675 mmHg 81%
20:00 +2°C° 0.2 mm 2 m/s 676 mmHg 83%
21:00 -1°C° 0.2 mm 2 m/s 676 mmHg 86%
22:00 -1°C° 0 mm 2 m/s 677 mmHg 86%
23:00 -2°C° 0 mm 2 m/s 677 mmHg 86%

Depois de amanhã, 14 Abril, Quarta-feira

Tempo Temperatura Precipitação Vento Pressão Humidade
00:00 0°C° 0 mm 1 m/s 677 mmHg 86%
01:00 0°C° 0 mm 1 m/s 677 mmHg 86%
02:00 -1°C° 0 mm 1 m/s 677 mmHg 86%
03:00 -1°C° 0 mm 1 m/s 677 mmHg 86%
04:00 -1°C° 0 mm 1 m/s 677 mmHg 84%
05:00 -1°C° 0 mm 1 m/s 678 mmHg 82%
06:00 -1°C° 0 mm 1 m/s 678 mmHg 80%
07:00 +1°C° 0 mm 1 m/s 678 mmHg 67%
08:00 +2°C° 0 mm 1 m/s 678 mmHg 54%
09:00 +3°C° 0 mm 1 m/s 678 mmHg 40%
10:00 +5°C° 0 mm 1 m/s 678 mmHg 40%
11:00 +6°C° 0 mm 1 m/s 678 mmHg 39%
12:00 +7°C° 0 mm 1 m/s 677 mmHg 38%
13:00 +7°C° 0 mm 1 m/s 677 mmHg 39%
14:00 +8°C° 0 mm 1 m/s 677 mmHg 41%
15:00 +9°C° 0 mm 1 m/s 676 mmHg 43%
16:00 +8°C° 0 mm 1 m/s 676 mmHg 48%
17:00 +8°C° 0 mm 1 m/s 676 mmHg 53%
18:00 +6°C° 0 mm 0 m/s 675 mmHg 58%
19:00 +5°C° 0 mm 0 m/s 675 mmHg 61%
20:00 +4°C° 0 mm 0 m/s 675 mmHg 64%
21:00 +4°C° 0 mm 0 m/s 675 mmHg 67%
22:00 +3°C° 0 mm 0 m/s 675 mmHg 68%
23:00 +3°C° 0 mm 0 m/s 675 mmHg 69%

15 Abril, Quinta-feira

Tempo Temperatura Precipitação Vento Pressão Humidade
00:00 +3°C° 0 mm 0 m/s 674 mmHg 70%
01:00 +3°C° 0 mm 0 m/s 674 mmHg 72%
02:00 +2°C° 0 mm 0 m/s 674 mmHg 73%
03:00 +2°C° 0 mm 0 m/s 674 mmHg 75%
04:00 +2°C° 0 mm 0 m/s 674 mmHg 76%
05:00 +2°C° 0 mm 0 m/s 674 mmHg 76%
06:00 +1°C° 0 mm 0 m/s 674 mmHg 77%
07:00 +3°C° 0 mm 0 m/s 674 mmHg 70%
08:00 +5°C° 0 mm 0 m/s 674 mmHg 62%
09:00 +7°C° 0 mm 0 m/s 674 mmHg 55%
10:00 +8°C° 0 mm 0 m/s 674 mmHg 51%
11:00 +9°C° 0 mm 0 m/s 673 mmHg 47%
12:00 +10°C° 0 mm 0 m/s 673 mmHg 43%
13:00 +11°C° 0 mm 0 m/s 673 mmHg 42%
14:00 +11°C° 0 mm 0 m/s 673 mmHg 42%
15:00 +12°C° 0 mm 0 m/s 672 mmHg 41%
16:00 +11°C° 0 mm 0 m/s 672 mmHg 45%
17:00 +11°C° 0 mm 0 m/s 672 mmHg 48%
18:00 +10°C° 0 mm 0 m/s 671 mmHg 51%
19:00 +9°C° 0 mm 0 m/s 671 mmHg 56%
20:00 +7°C° 0 mm 0 m/s 671 mmHg 60%
21:00 +6°C° 0 mm 0 m/s 671 mmHg 65%
22:00 +5°C° 0 mm 0 m/s 671 mmHg 67%
23:00 +5°C° 0 mm 0 m/s 671 mmHg 69%

16 Abril, Sexta-feira

Tempo Temperatura Precipitação Vento Pressão Humidade
00:00 +4°C° 0 mm 0 m/s 671 mmHg 71%
01:00 +4°C° 0 mm 0 m/s 670 mmHg 72%
02:00 +4°C° 0 mm 0 m/s 670 mmHg 73%
03:00 +4°C° 0 mm 0 m/s 670 mmHg 74%
04:00 +4°C° 0 mm 0 m/s 670 mmHg 73%
05:00 +5°C° 0 mm 1 m/s 670 mmHg 73%
06:00 +4°C° 0 mm 1 m/s 670 mmHg 73%
07:00 +6°C° 0 mm 1 m/s 670 mmHg 66%
08:00 +8°C° 0 mm 1 m/s 670 mmHg 58%
09:00 +10°C° 0 mm 1 m/s 669 mmHg 51%
10:00 +11°C° 0 mm 1 m/s 669 mmHg 45%
11:00 +13°C° 0 mm 2 m/s 669 mmHg 40%
12:00 +14°C° 0 mm 2 m/s 669 mmHg 35%
13:00 +14°C° 0 mm 2 m/s 669 mmHg 33%
14:00 +15°C° 0 mm 2 m/s 669 mmHg 31%
15:00 +14°C° 0 mm 3 m/s 668 mmHg 30%
16:00 +14°C° 0 mm 3 m/s 668 mmHg 33%
17:00 +14°C° 0 mm 2 m/s 668 mmHg 37%
18:00 +13°C° 0 mm 2 m/s 668 mmHg 41%
19:00 +10°C° 0 mm 2 m/s 668 mmHg 46%
20:00 +9°C° 0 mm 2 m/s 667 mmHg 52%
21:00 +7°C° 0 mm 2 m/s 667 mmHg 58%
22:00 +8°C° 0 mm 1 m/s 667 mmHg 59%
23:00 +7°C° 0 mm 1 m/s 667 mmHg 60%

17 Abril, Sábado

Tempo Temperatura Precipitação Vento Pressão Humidade
00:00 +7°C° 0 mm 1 m/s 667 mmHg 62%
01:00 +7°C° 0 mm 1 m/s 666 mmHg 63%
02:00 +6°C° 0 mm 1 m/s 666 mmHg 64%
03:00 +6°C° 0 mm 1 m/s 666 mmHg 64%
04:00 +6°C° 0 mm 1 m/s 665 mmHg 64%
05:00 +5°C° 0 mm 2 m/s 665 mmHg 64%
06:00 +5°C° 0 mm 2 m/s 665 mmHg 64%
07:00 +7°C° 0 mm 2 m/s 664 mmHg 56%
08:00 +9°C° 0 mm 2 m/s 664 mmHg 49%
09:00 +11°C° 0 mm 3 m/s 664 mmHg 41%
10:00 +12°C° 0 mm 4 m/s 664 mmHg 41%
11:00 +12°C° 0 mm 5 m/s 664 mmHg 42%
12:00 +13°C° 0 mm 6 m/s 664 mmHg 42%
13:00 +13°C° 0.1 mm 6 m/s 663 mmHg 45%
14:00 +11°C° 0.1 mm 6 m/s 663 mmHg 48%
15:00 +12°C° 0.1 mm 5 m/s 663 mmHg 51%
16:00 +11°C° 0.5 mm 4 m/s 662 mmHg 59%
17:00 +10°C° 0.5 mm 3 m/s 662 mmHg 67%
18:00 +9°C° 0.5 mm 2 m/s 662 mmHg 74%
19:00 +8°C° 2.5 mm 2 m/s 663 mmHg 81%
20:00 +7°C° 2.5 mm 2 m/s 663 mmHg 87%
21:00 +7°C° 2.5 mm 1 m/s 664 mmHg 94%
22:00 +6°C° 0.2 mm 2 m/s 664 mmHg 94%
23:00 +6°C° 0.2 mm 2 m/s 664 mmHg 93%
Mostrar mais